Temperature
14 14 14 14 14 14 14 14 14 14 14 14 14 14 14 14 14 14 14 14 14 14 14 14 14 14 14 14 14 14 14 14 14 14 14 14 14 14
14 14 14 14 14 14 14 14 14 14 14 14 14 14 14 14 14 14 13 13 13 13 13 13 13 13 13 14 14 14 14 14 14 14 14 14 14 14
14 14 14 14 14 14 14 14 14 14 14 14 14 14 14 14 14 14 13 13 13 13 13 13 13 13 13 13 13 13 14 14 14 14 14 14 14 14
14 14 14 14 14 14 14 14 14 13 13 14 14 14 14 14 14 14 14 13 13 13 13 13 13 13 13 13 13 13 13 13 13 13 13 14 14 14
15 14 14 14 14 14 14 14 14 14 13 14 14 14 14 14 14 14 14 13 13 13 13 13 13 13 13 13 13 13 13 13 13 13 13 13 13 13
15 15 15 14 14 14 14 14 14 14 14 14 14 14 14 14 13 14 14 14 13 13 13 13 13 13 13 13 13 13 13 13 13 13 13 13 13 13
15 15 15 15 15 14 14 14 14 14 14 13 14 14 14 14 14 13 13 13 13 13 13 13 13 13 13 13 13 13 13 13 13 13 12 12 13 13
15 15 15 15 14 14 14 14 14 14 14 13 13 13 14 14 14 13 13 13 13 13 13 13 13 13 13 13 13 13 13 13 13 12 12 12 12 12
15 15 15 15 14 14 14 14 14 13 13 13 13 13 13 14 13 13 13 13 13 13 12 13 13 13 13 13 13 13 13 13 12 12 12 12 12 12
14 14 14 14 14 14 14 14 14 14 13 13 13 13 13 13 13 12 12 12 12 13 12 12 13 13 13 13 13 13 13 12 12 12 12 12 12 12
14 14 14 14 14 14 13 13 13 14 13 13 13 13 13 13 12 12 12 12 12 13 13 12 12 13 13 13 13 13 12 12 12 12 12 12 12 12
14 14 13 13 13 13 13 13 13 13 13 13 13 13 13 13 12 12 12 11 11 12 12 12 12 12 12 13 13 13 12 12 12 12 12 12 12 12
13 13 13 13 13 12 12 12 12 12 12 12 12 12 12 12 12 12 12 11 11 11 12 11 11 11 11 11 12 12 12 12 12 12 12 12 12 12
13 13 12 12 12 12 12 12 12 11 11 11 11 11 12 12 12 12 11 11 11 11 11 11 11 11 11 11 11 11 12 12 12 12 12 12 12 12
12 12 12 11 11 11 11 11 11 11 11 11 10 11 11 11 11 11 11 11 11 11 11 11 10 11 11 11 11 11 11 11 11 11 11 12 12 11
11 11 11 11 11 11 10 10 10 10 10 10 10 10 10 10 10 10 10 10 10 10 11 10 10 10 10 10 10 10 11 11 11 11 11 11 11 11
11 10 10 10 10 10 10 10 9 9 9 9 9 9 9 9 9 9 9 10 9 10 10 10 10 10 10 10 10 10 10 10 11 11 11 11 11 11
10 10 10 9 9 9 9 9 9 9 9 9 9 9 9 9 9 9 9 9 9 9 9 10 10 10 10 10 10 10 10 10 10 10 10 10 10 11
9 9 9 8 8 8 8 8 8 8 8 8 8 8 8 8 8 8 8 8 8 9 9 9 9 9 9 9 10 10 10 10 10 10 10 10 10 11
8 8 8 8 8 7 7 7 7 7 7 8 7 7 7 8 8 7 8 8 8 8 8 8 9 9 8 9 9 9 10 9 9 10 10 10 10 10
7 7 7 7 7 7 7 7 7 7 7 7 7 7 7 7 7 7 7 7 7 7 8 8 8 8 8 8 8 9 9 9 9 9 9 9 9 9
6 6 6 6 6 6 6 6 6 6 6 6 6 6 6 6 6 6 6 6 7 7 7 7 8 8 8 8 8 8 8 9 9 9 9 9 9 9
5 5 5 5 5 5 5 5 5 5 5 5 5 5 5 5 5 5 5 6 6 6 7 7 7 7 7 7 7 8 8 8 8 9 9 9 9 9
Wind_Speed
3 3 2 1 1 2 3 4 4 1 2 3 2 2 3 6 9 9 9 10 11 12 12 12 12 12 11 11 10 10 11 11 12 13 14 14 15 16
3 3 2 1 1 1 2 2 3 4 3 3 3 3 3 5 9 10 11 12 13 14 15 16 16 16 15 14 13 12 12 12 12 13 13 13 14 15
3 4 4 3 2 1 1 1 2 3 3 4 3 3 2 4 5 9 11 12 13 15 16 18 19 19 19 18 17 16 15 14 14 14 14 14 14 15
6 5 5 4 4 3 3 3 3 3 4 4 3 3 4 5 5 5 8 10 12 14 16 17 19 20 20 20 20 19 18 18 17 16 16 16 16 15
7 7 7 6 6 5 5 4 3 3 4 4 4 3 4 4 4 4 5 6 10 12 14 15 17 18 19 20 21 22 21 20 20 19 19 18 18 17
7 8 8 8 8 8 6 6 5 4 4 4 5 4 4 4 2 4 5 4 5 7 10 11 12 14 16 18 20 21 22 22 22 22 22 21 20 20
7 7 8 10 11 9 7 7 6 5 5 5 5 4 5 4 4 4 5 5 5 4 4 5 6 7 11 14 17 19 21 23 24 24 24 23 23 22
8 7 8 9 11 14 14 12 10 8 8 6 6 7 8 7 5 5 4 4 5 4 3 5 3 6 8 12 16 19 20 22 23 23 24 24 24 24
8 7 7 7 8 7 10 12 12 15 14 10 10 11 9 8 6 6 7 7 8 5 3 6 5 7 9 15 19 20 21 22 22 22 23 24 24 25
8 8 8 7 6 6 6 7 8 9 11 11 10 12 11 10 9 9 9 8 7 6 5 6 7 7 8 11 19 21 22 23 23 23 23 23 24 25
7 7 7 7 9 8 5 7 8 9 12 15 17 17 19 19 13 6 6 6 8 7 6 6 6 7 6 8 15 21 22 22 22 22 22 22 23 22
5 5 8 8 8 7 6 6 9 10 8 9 9 13 13 15 17 12 10 10 8 7 6 6 6 5 5 6 7 10 13 16 19 20 20 21 21 13
4 4 4 6 8 9 8 8 12 11 7 8 8 9 8 8 9 10 11 11 11 10 7 6 6 6 6 5 5 6 7 7 9 11 17 19 19 13
4 4 4 7 8 9 8 11 14 11 6 6 7 8 9 9 10 9 11 13 14 14 12 9 7 8 8 8 7 5 6 7 7 7 9 14 16 19
4 5 6 8 9 8 10 12 10 6 5 6 8 9 9 10 9 8 9 10 11 16 17 14 11 10 9 10 9 8 6 6 7 8 8 8 7 6
4 5 7 9 8 9 8 7 5 5 6 7 8 9 8 7 8 8 9 8 8 10 12 15 14 13 12 12 11 11 9 7 6 8 8 8 7 8
2 2 2 3 4 4 5 5 5 5 6 7 7 8 8 8 9 7 8 7 8 10 10 8 9 11 13 11 10 12 11 10 10 9 8 9 10 9
1 1 3 4 4 5 6 6 5 6 6 7 7 7 8 8 9 8 7 8 9 10 10 8 6 5 5 8 14 13 11 11 10 9 8 9 11 9
1 2 3 4 5 5 5 5 6 6 6 6 6 7 7 8 8 8 8 8 9 9 9 8 7 7 9 11 8 13 12 10 8 8 9 10 11 11
1 3 4 5 5 5 5 5 6 6 5 5 6 6 7 7 8 8 8 9 9 9 8 7 7 9 10 11 9 7 13 12 9 10 10 8 9 11
3 4 4 5 5 5 5 5 5 5 6 6 6 7 7 7 7 7 8 10 9 8 8 8 9 11 8 5 6 7 7 13 14 10 8 7 7 6
3 4 4 5 5 5 5 5 5 6 6 6 6 7 7 6 8 9 8 8 8 8 9 9 8 6 5 7 10 9 8 7 11 16 17 13 8 7
4 4 5 5 5 5 5 6 7 6 6 7 6 7 7 8 8 8 9 9 8 9 9 8 6 5 6 7 8 8 10 9 7 7 9 14 19 20
Wind_Direction
176 172 170 206 164 159 155 151 147 162 279 286 294 281 243 225 222 216 229 237 242 249 254 259 262 264 264 262 262 263 263 261 260 256 254 252 251 250
190 179 194 214 195 160 158 154 151 159 214 261 259 266 252 244 238 232 239 245 248 253 256 259 262 263 263 262 261 260 259 259 258 256 255 254 253 254
209 197 212 206 206 216 189 164 165 158 205 269 267 274 261 260 263 251 253 253 257 259 260 261 262 263 262 260 260 259 259 258 256 255 254 254 254 255
216 210 220 212 215 225 215 213 209 193 193 245 274 276 261 256 255 259 260 257 256 263 265 266 265 263 261 260 258 257 257 257 257 256 254 253 253 255
212 210 216 207 217 222 218 219 223 219 199 219 257 261 267 268 272 275 269 268 268 268 268 268 266 265 264 261 258 256 255 255 256 256 256 255 255 255
216 216 216 210 215 218 221 221 219 222 219 228 252 262 264 272 259 266 282 272 269 274 274 274 272 272 269 266 263 261 258 256 255 254 254 255 255 255
224 224 224 220 218 216 219 217 214 222 228 233 248 259 262 262 253 246 256 272 274 256 269 275 274 277 278 274 270 266 262 258 255 253 252 253 253 254
227 232 236 234 234 231 231 224 212 217 225 229 240 243 253 245 243 239 242 260 277 256 231 263 250 262 266 267 266 265 263 260 258 256 253 252 251 251
224 229 241 241 232 235 242 243 237 233 225 226 236 244 247 240 232 242 236 234 245 241 216 264 256 259 263 265 264 263 262 261 260 258 255 252 251 250
223 222 227 241 239 230 241 251 251 248 241 236 238 246 246 242 229 236 242 248 255 251 209 250 259 255 263 263 265 262 261 260 258 257 256 253 251 250
232 228 225 232 243 236 235 252 263 266 261 250 244 247 251 250 241 239 243 244 261 260 212 221 253 258 259 260 262 259 257 258 257 255 254 254 253 251
244 243 238 240 252 246 234 244 260 265 268 274 264 261 256 256 248 233 235 241 251 259 230 212 242 242 267 260 253 253 253 255 255 254 253 253 252 244
240 246 248 253 257 257 249 243 252 259 262 259 263 264 260 254 249 237 230 232 240 247 230 204 228 224 228 257 264 246 237 243 251 254 254 253 250 229
238 249 253 265 271 271 261 255 262 269 260 258 261 264 263 261 257 246 237 235 238 245 245 220 227 232 237 249 257 257 245 239 235 241 247 253 251 240
246 260 275 281 287 282 270 270 272 262 255 258 262 264 262 262 262 259 254 247 247 248 251 238 234 240 235 244 251 248 252 248 232 237 241 236 235 227
276 288 292 286 279 273 279 279 263 251 252 259 267 269 272 270 267 263 265 261 260 262 251 243 237 236 242 243 246 251 245 241 237 232 235 240 235 228
286 304 301 299 297 290 287 281 276 273 268 266 269 274 275 272 271 265 261 261 258 265 267 255 241 235 235 237 243 246 247 247 244 240 233 246 247 235
86 302 290 286 284 287 291 292 287 279 275 274 273 271 273 274 276 272 263 259 261 262 263 260 252 253 256 250 231 242 245 246 245 234 226 238 253 247
24 296 291 290 289 290 288 286 288 289 288 286 283 282 281 280 277 274 270 265 263 262 261 256 242 238 254 266 250 222 233 244 243 238 232 231 244 250
305 289 291 292 292 292 291 289 289 292 294 293 291 289 289 287 285 281 274 268 269 269 267 258 244 238 243 257 264 250 223 229 238 242 243 239 244 252
311 301 298 299 299 296 293 293 293 293 295 296 294 293 295 293 288 284 281 277 271 268 267 265 256 248 250 251 260 260 247 228 227 231 232 235 244 244
308 305 305 304 304 304 305 305 306 304 304 299 297 297 294 291 290 289 288 287 281 273 270 272 270 260 239 243 254 261 266 262 244 239 234 223 219 225
299 299 298 299 299 300 301 301 303 301 299 300 300 300 300 298 293 289 288 286 282 280 277 278 277 263 252 248 254 259 262 265 261 256 255 243 235 240
Height
1555 1556 1557 1558 1558 1559 1559 1560 1560 1560 1560 1560 1560 1561 1561 1560 1560 1560 1559 1559 1558 1557 1556 1555 1555 1555 1555 1555 1555 1556 1556 1557 1558 1558 1559 1560 1562 1563
1554 1554 1555 1556 1557 1557 1558 1558 1558 1558 1558 1558 1558 1559 1558 1558 1558 1557 1557 1556 1555 1554 1553 1552 1552 1552 1552 1552 1552 1552 1552 1552 1553 1553 1554 1555 1556 1557
1552 1553 1553 1554 1555 1555 1556 1556 1556 1556 1556 1556 1556 1556 1556 1556 1555 1555 1554 1553 1552 1551 1550 1549 1549 1549 1548 1548 1548 1548 1548 1548 1548 1548 1549 1550 1550 1552
1549 1550 1551 1552 1552 1553 1553 1554 1554 1554 1554 1553 1553 1553 1553 1553 1552 1551 1551 1550 1549 1548 1547 1546 1545 1545 1545 1544 1544 1544 1543 1543 1543 1543 1544 1544 1545 1546
1547 1548 1549 1549 1549 1550 1550 1551 1551 1551 1551 1550 1550 1550 1549 1549 1549 1548 1547 1546 1545 1544 1544 1543 1542 1541 1541 1540 1540 1539 1539 1539 1538 1538 1538 1539 1539 1540
1543 1544 1545 1546 1546 1547 1547 1547 1548 1547 1547 1547 1546 1545 1545 1545 1544 1543 1542 1542 1541 1541 1540 1539 1538 1537 1536 1535 1535 1535 1534 1534 1533 1533 1533 1533 1533 1533
1539 1540 1541 1542 1542 1543 1543 1544 1544 1543 1543 1542 1541 1541 1540 1540 1540 1539 1538 1537 1536 1536 1535 1534 1533 1532 1531 1530 1530 1529 1529 1529 1528 1528 1527 1527 1527 1527
1535 1536 1537 1537 1538 1538 1539 1539 1539 1539 1538 1537 1536 1535 1535 1535 1535 1534 1533 1531 1529 1530 1529 1528 1527 1526 1525 1524 1524 1523 1523 1523 1522 1522 1522 1521 1521 1521
1530 1531 1532 1532 1533 1533 1533 1533 1533 1533 1533 1533 1531 1530 1529 1529 1529 1528 1527 1525 1524 1524 1523 1520 1520 1518 1518 1517 1517 1516 1516 1516 1515 1515 1515 1515 1515 1515
1525 1526 1526 1527 1527 1527 1527 1527 1527 1526 1526 1526 1525 1524 1523 1523 1523 1522 1520 1518 1516 1516 1516 1513 1512 1511 1511 1510 1510 1509 1509 1508 1508 1508 1508 1508 1508 1508
1519 1520 1520 1521 1521 1521 1521 1520 1519 1519 1519 1518 1517 1516 1516 1516 1515 1514 1512 1511 1507 1507 1508 1506 1504 1503 1502 1501 1501 1501 1501 1501 1501 1501 1501 1501 1501 1501
1513 1514 1514 1515 1515 1515 1514 1513 1512 1511 1511 1510 1509 1508 1507 1507 1507 1506 1504 1502 1499 1497 1499 1498 1496 1496 1492 1492 1493 1493 1493 1493 1493 1493 1493 1493 1493 1493
1506 1507 1507 1508 1508 1508 1507 1506 1505 1504 1503 1501 1500 1499 1498 1497 1496 1496 1495 1493 1491 1488 1490 1490 1488 1487 1486 1483 1483 1484 1485 1484 1485 1485 1485 1485 1485 1485
1500 1500 1501 1501 1501 1500 1500 1499 1498 1496 1494 1492 1491 1489 1488 1487 1486 1486 1485 1483 1482 1480 1480 1481 1479 1478 1477 1475 1474 1474 1475 1475 1475 1475 1475 1475 1476 1476
1495 1495 1494 1494 1494 1493 1493 1491 1490 1488 1486 1484 1482 1481 1480 1478 1477 1475 1474 1473 1471 1470 1470 1470 1469 1468 1468 1466 1465 1465 1465 1465 1466 1466 1466 1466 1466 1466
1490 1489 1489 1488 1487 1487 1486 1484 1483 1481 1479 1477 1474 1473 1471 1469 1467 1466 1464 1463 1461 1459 1459 1460 1459 1459 1457 1456 1456 1455 1455 1455 1455 1456 1456 1456 1456 1456
1485 1484 1483 1482 1481 1480 1478 1477 1475 1473 1471 1469 1467 1464 1462 1460 1458 1457 1455 1453 1451 1449 1448 1448 1448 1448 1447 1446 1445 1444 1445 1445 1445 1446 1446 1445 1445 1446
1481 1479 1478 1477 1475 1474 1472 1470 1468 1466 1464 1462 1459 1457 1454 1452 1450 1448 1446 1444 1441 1439 1438 1438 1438 1437 1436 1434 1435 1434 1434 1434 1435 1435 1435 1434 1433 1435
1476 1475 1473 1472 1471 1469 1467 1465 1462 1460 1458 1455 1453 1450 1447 1444 1442 1439 1437 1435 1433 1430 1429 1428 1428 1427 1425 1422 1422 1425 1424 1424 1424 1424 1424 1424 1423 1424
1472 1471 1469 1467 1465 1463 1461 1459 1456 1454 1452 1449 1446 1443 1440 1437 1434 1431 1429 1427 1424 1422 1420 1419 1419 1418 1416 1415 1412 1412 1414 1414 1414 1414 1414 1414 1414 1415
1468 1466 1464 1462 1460 1458 1456 1453 1450 1448 1445 1442 1439 1436 1433 1430 1426 1423 1421 1418 1416 1413 1411 1410 1409 1409 1407 1406 1404 1401 1403 1405 1405 1405 1405 1405 1404 1404
1464 1462 1459 1457 1455 1452 1450 1447 1444 1441 1438 1435 1432 1429 1426 1423 1419 1416 1413 1411 1408 1406 1403 1402 1401 1400 1399 1397 1394 1393 1393 1394 1395 1395 1396 1396 1394 1393
1459 1457 1455 1452 1449 1446 1443 1440 1437 1434 1432 1429 1425 1423 1419 1416 1413 1410 1407 1404 1401 1399 1396 1394 1392 1391 1390 1389 1387 1386 1385 1385 1385 1385 1385 1385 1386 1386